[[{"header":{"parameterUnit":"m.s-1","parameterCategory":1,"la1":30.2991,"la2":30.254,"lo1":-89.0895,"lo2":-89.0444,"dy":0.0017,"dx":0.0017,"nx":28,"ny":28,"refTime":"2025-08-07T21:00:00:Z","depth":0,"parameterNumber":2,"parameterNumberName":"U-component_of_WINDS"},"data":[0,0,0,0,0,0,0,0,0,0,0,0,0,0,0,0,0,0,0,0,0,0,0,0,0,0,0,0,0,0,0,0,0,0,0,0,0,0,0,0,0,0,0,0,0,0,0,0,0,0,0,0,0,0,0,0,0,0,-2.1902,-2.1903,0,-2.1983,-2.1984,-2.1985,-2.197,-2.1969,-2.1967,-2.1966,-2.2047,-2.2051,-2.2054,0,0,0,0,0,0,0,0,0,0,0,0,0,-2.1734,-2.1737,-2.1902,-2.1903,-2.1904,-2.1983,-2.1984,-2.1985,-2.1971,-2.1969,-2.1967,-2.1965,-2.2046,-2.205,-2.2055,0,0,0,0,0,0,0,0,0,0,0,0,0,-2.181,-2.1738,-2.1902,-2.1906,-2.1908,-2.1983,-2.1984,-2.1985,-2.1971,-2.1969,-2.1967,-2.1965,-2.2045,-2.205,-2.2055,-2.213,0,0,-2.2071,-2.2074,0,0,0,0,0,0,0,0,-2.1805,-2.1816,-2.1905,-2.1906,-2.1908,-2.1964,-2.1954,-2.2034,-2.1971,-2.1947,-2.1966,-2.1964,-2.2021,-2.2029,-2.2048,-2.2134,-2.2138,-2.2072,-2.2075,-2.2077,-2.2079,0,0,0,0,0,0,0,-2.18,-2.1812,-2.1934,-2.1906,-2.1908,-2.1904,-2.1912,-2.1969,-2.1995,-2.1949,-2.1948,-2.1958,-2.2022,-2.2043,-2.205,-2.2139,-2.2072,-2.2076,-2.2079,-2.2082,-2.2289,-2.2292,0,0,0,0,0,0,-2.1794,-2.1808,-2.1931,-2.1936,-2.185,-2.1909,-2.1918,-2.1948,-2.1994,-2.1999,-2.196,-2.1957,-2.2035,-2.2044,-2.2053,-2.2143,-2.2077,-2.2082,-2.2085,-2.2287,-2.229,-2.2293,0,0,0,0,0,0,-2.179,-2.1805,-2.1928,-2.1872,-2.1888,-2.1914,-2.1948,-2.1951,-2.1972,-2.2003,-2.2007,-2.1977,-2.2034,-2.2046,-2.2111,-2.2146,-2.2084,-2.2089,-2.2284,-2.2288,-2.2291,-2.2324,0,0,0,0,0,0,-2.1785,-2.1804,-2.1833,-2.1873,-2.1891,-2.1986,-2.195,-2.1954,-2.1982,-2.1979,-2.202,-2.2025,-2.2033,-2.2103,-2.2116,-2.2152,-2.2093,-2.2281,-2.2286,-2.229,-2.232,-2.2329,-2.2336,0,0,0,0,0,-2.1779,-2.1839,-2.1834,-2.1849,-2.1928,-2.1988,-2.1998,-2.2007,-2.1985,-2.2014,-2.2033,-2.2023,-2.214,-2.211,-2.2125,-2.2162,-2.2279,-2.2285,-2.229,-2.2317,-2.2327,-2.2336,0,0,0,0,0,0,-2.1802,-2.1844,-2.184,-2.1914,-2.1947,-2.1985,-2.2022,-2.2017,-2.2057,-2.2053,-2.2062,-2.2072,-2.2138,-2.2157,-2.2123,-2.2237,-2.2206,-2.2215,-2.2222,-2.2232,-2.2239,-2.2233,-2.2098,0,0,0,0,0,-2.1816,-2.1861,-2.1896,-2.1958,-2.1975,-2.1996,-2.2022,-2.2026,-2.2061,-2.2075,-2.2099,-2.2133,-2.2177,-2.2206,-2.2248,-2.2323,-2.2331,-2.2356,-2.2364,-2.237,-2.2377,-2.2417,-2.2428,-2.231,-2.231,-2.231,0,0,-2.1844,-2.1873,-2.1901,-2.1963,-2.1989,-2.2036,-2.2008,-2.2058,-2.2092,-2.2082,-2.2146,-2.2165,-2.2203,-2.2273,-2.2305,-2.2291,-2.2412,-2.2377,-2.2382,-2.2385,-2.2424,-2.2435,-2.2445,-2.2314,-2.2313,-2.2312,0,0,-2.1919,-2.1946,-2.2001,-2.2028,-2.2068,-2.2082,-2.2095,-2.2133,-2.2145,-2.2209,-2.2203,-2.2243,-2.2319,-2.2346,-2.237,-2.2456,-2.2448,-2.2469,-2.2509,-2.2548,-2.2558,-2.2566,-2.2595,-2.2606,-2.2476,-2.2477,-2.2477,0,-2.195,-2.202,-2.2029,-2.208,-2.2107,-2.2101,-2.2156,-2.2181,-2.2233,-2.2252,-2.2235,-2.233,-2.2355,-2.2431,-2.2452,-2.2472,-2.2486,-2.2464,-2.2556,-2.2564,-2.2572,-2.26,-2.2611,-2.2479,-2.2479,-2.2478,-2.2478,0,-2.2054,-2.2103,-2.2142,-2.2192,-2.2224,-2.2276,-2.2293,-2.2324,-2.2326,-2.2341,-2.2405,-2.2435,-2.2483,-2.2502,-2.2504,-2.2578,-2.2568,-2.2554,-2.2523,-2.2585,-2.2612,-2.2623,-2.2482,-2.2481,-2.2481,-2.248,0,0,-2.2145,-2.22,-2.2214,-2.2237,-2.2281,-2.2318,-2.237,-2.2418,-2.2443,-2.248,-2.2523,-2.2587,-2.2574,-2.2601,-2.2606,-2.2641,-2.2705,-2.2622,-2.2623,-2.2635,-2.2787,-2.2797,-2.2809,-2.27,-2.2703,-2.2704,-2.2784,0,-2.2223,-2.2316,-2.2326,-2.2408,-2.2452,-2.2447,-2.2492,-2.2524,-2.2539,-2.2579,-2.2596,-2.2641,-2.2621,-2.2637,-2.2671,-2.269,-2.2735,-2.2684,-2.2739,-2.2741,-2.2729,-2.2823,-2.2834,-2.2907,-2.2794,-2.2796,-2.2797,0,-2.2327,-2.2366,-2.2453,-2.249,-2.2509,-2.255,-2.2593,-2.2632,-2.2667,-2.2676,-2.2706,-2.2707,-2.2759,-2.2728,-2.28,-2.2765,-2.2788,-2.2801,-2.2804,-2.2808,-2.2772,-2.2829,-2.2931,-2.2941,-2.2814,-2.2813,-2.2811,0,-2.2383,-2.2458,-2.2519,-2.2538,-2.2584,-2.2612,-2.2632,-2.2666,-2.2693,-2.2732,-2.2749,-2.2793,-2.2817,-2.2851,-2.2863,-2.2839,-2.2934,-2.2903,-2.2942,-2.2941,-2.2961,-2.2959,-2.3067,-2.2978,-2.2978,-2.2978,-2.2978,0,-2.2469,-2.2521,-2.2544,-2.2582,-2.264,-2.2652,-2.2709,-2.2728,-2.2758,-2.2798,-2.2797,-2.2835,-2.2849,-2.2889,-2.2899,-2.2956,-2.2967,-2.2975,-2.2977,-2.2975,-2.2973,-2.2989,-2.2983,-2.2981,-2.298,-2.298,-2.2979,0,-2.254,-2.2558,-2.2624,-2.2662,-2.2673,-2.2714,-2.2746,-2.2782,-2.2797,-2.2848,-2.2861,-2.2885,-2.2932,-2.2947,-2.3004,-2.3011,-2.3078,-2.3076,-2.3066,-2.3065,-2.3102,-2.3098,-2.3223,-2.3239,-2.3141,-2.3142,-2.3143,0,-2.2593,-2.2634,-2.2676,-2.2703,-2.2724,-2.2768,-2.2797,-2.2809,-2.2838,-2.2882,-2.2912,-2.2959,-2.2997,-2.3072,-2.3094,-2.3137,-2.3135,-2.3176,-2.3141,-2.3138,-2.3134,-2.3131,-2.3134,-2.3182,-2.3183,-2.3183,-2.3184,0,-2.2685,-2.2691,-2.2732,-2.2776,-2.281,-2.2845,-2.2879,-2.2902,-2.2919,-2.2952,-2.3,-2.3029,-2.3088,-2.3134,-2.3178,-2.3198,-2.3194,-2.3195,-2.3206,-2.3203,-2.3195,-2.3199,-2.3081,-2.3192,-2.3191,-2.319,-2.319,-2.319,-2.2748,-2.2783,-2.2818,-2.2864,-2.2891,-2.2922,-2.2958,-2.2977,-2.3018,-2.3066,-2.3071,-2.3123,-2.3157,-2.3216,-2.3238,-2.3278,-2.3267,-2.3283,-2.3287,-2.329,-2.3292,-2.319,-2.3286,-2.3286,-2.3286,-2.3286,-2.3286,0,-2.2838,-2.286,-2.2902,-2.295,-2.2985,-2.2979,-2.3016,-2.3046,-2.3092,-2.3124,-2.3162,-2.3217,-2.3261,-2.3287,-2.3331,-2.3358,-2.3358,-2.337,-2.3367,-2.3371,-2.3301,-2.3286,-2.3369,-2.3369,-2.3369,-2.3369,-2.3369,-2.3369,-2.2889,-2.2948,-2.2959,-2.3031,-2.3053,-2.3104,-2.3125,-2.3154,-2.318,-2.3242,-2.3279,-2.3296,-2.3325,-2.3372,-2.3412,-2.3418,-2.3434,-2.3447,-2.3452,-2.3385,-2.3376,-2.3368,-2.3355,-2.3451,-2.3451,-2.3519,-2.352,-2.352]},{"header":{"parameterUnit":"m.s-1","parameterCategory":1,"la1":30.2991,"la2":30.254,"lo1":-89.0895,"lo2":-89.0444,"dy":0.0017,"dx":0.0017,"nx":28,"ny":28,"refTime":"2025-08-07T21:00:00:Z","depth":0,"parameterNumber":3,"parameterNumberName":"V-component_of_WINDS"},"data":[0,0,0,0,0,0,0,0,0,0,0,0,0,0,0,0,0,0,0,0,0,0,0,0,0,0,0,0,0,0,0,0,0,0,0,0,0,0,0,0,0,0,0,0,0,0,0,0,0,0,0,0,0,0,0,0,0,0,-0.3222,-0.3222,0,-0.3267,-0.3268,-0.3269,-0.3319,-0.3319,-0.332,-0.3321,-0.3367,-0.3368,-0.3368,0,0,0,0,0,0,0,0,0,0,0,0,0,-0.3177,-0.3177,-0.3221,-0.3222,-0.3223,-0.3267,-0.3268,-0.3269,-0.3319,-0.3319,-0.332,-0.3321,-0.3367,-0.3367,-0.3368,0,0,0,0,0,0,0,0,0,0,0,0,0,-0.3207,-0.3177,-0.3221,-0.3253,-0.3256,-0.3267,-0.3268,-0.3269,-0.3318,-0.3319,-0.3321,-0.3322,-0.3367,-0.3367,-0.3368,-0.3352,0,0,-0.3371,-0.3371,0,0,0,0,0,0,0,0,-0.3205,-0.3208,-0.3248,-0.3251,-0.3255,-0.3289,-0.3269,-0.3297,-0.3318,-0.3295,-0.3321,-0.3322,-0.334,-0.3343,-0.3349,-0.3354,-0.3356,-0.3371,-0.3371,-0.3372,-0.3372,0,0,0,0,0,0,0,-0.3203,-0.3207,-0.324,-0.3248,-0.3252,-0.3265,-0.327,-0.3275,-0.3311,-0.3297,-0.3301,-0.3305,-0.3342,-0.3348,-0.3351,-0.3356,-0.3371,-0.3372,-0.3372,-0.3372,-0.335,-0.3349,0,0,0,0,0,0,-0.3196,-0.3204,-0.3238,-0.3241,-0.3232,-0.3265,-0.3271,-0.3276,-0.3311,-0.3317,-0.3304,-0.3308,-0.3346,-0.335,-0.3352,-0.3336,-0.3372,-0.3372,-0.3373,-0.3351,-0.335,-0.3349,0,0,0,0,0,0,-0.3195,-0.3199,-0.3236,-0.3224,-0.323,-0.3264,-0.327,-0.3277,-0.3283,-0.3317,-0.3323,-0.3304,-0.3347,-0.3351,-0.3352,-0.3338,-0.3373,-0.3374,-0.3353,-0.3351,-0.335,-0.3301,0,0,0,0,0,0,-0.3193,-0.3198,-0.3192,-0.3223,-0.323,-0.3235,-0.3269,-0.3277,-0.3285,-0.3289,-0.3318,-0.3324,-0.3349,-0.335,-0.3352,-0.334,-0.3374,-0.3354,-0.3352,-0.335,-0.3304,-0.3298,-0.3293,0,0,0,0,0,-0.3192,-0.3176,-0.3191,-0.3195,-0.3223,-0.3234,-0.3238,-0.3266,-0.3283,-0.3278,-0.3299,-0.3323,-0.3339,-0.335,-0.3353,-0.334,-0.3355,-0.3353,-0.335,-0.3307,-0.33,-0.3293,0,0,0,0,0,0,-0.3141,-0.3181,-0.3198,-0.3192,-0.3209,-0.3242,-0.3236,-0.3258,-0.327,-0.3274,-0.3309,-0.3315,-0.3311,-0.3326,-0.3337,-0.3326,-0.3351,-0.3349,-0.3317,-0.331,-0.3304,-0.3301,-0.3375,0,0,0,0,0,-0.313,-0.3135,-0.3169,-0.3161,-0.3169,-0.32,-0.3206,-0.3227,-0.3246,-0.3253,-0.3275,-0.3292,-0.3301,-0.3307,-0.3317,-0.3307,-0.3314,-0.33,-0.3294,-0.3289,-0.3287,-0.3284,-0.3278,-0.3341,-0.3341,-0.3341,0,0,-0.3105,-0.3128,-0.3129,-0.3151,-0.3167,-0.3172,-0.3206,-0.321,-0.3213,-0.3254,-0.3256,-0.3272,-0.3294,-0.3289,-0.3288,-0.3301,-0.3272,-0.3286,-0.3282,-0.3283,-0.3281,-0.3275,-0.3269,-0.3339,-0.334,-0.334,0,0,-0.3064,-0.3081,-0.3076,-0.3091,-0.3115,-0.3137,-0.3135,-0.3165,-0.3178,-0.318,-0.3211,-0.3216,-0.3231,-0.3245,-0.3255,-0.3219,-0.3242,-0.3222,-0.3192,-0.3188,-0.3183,-0.3179,-0.3167,-0.3162,-0.3219,-0.3219,-0.3219,0,-0.303,-0.3039,-0.3071,-0.3073,-0.3082,-0.3119,-0.3115,-0.3128,-0.3153,-0.3159,-0.3173,-0.3193,-0.321,-0.321,-0.3201,-0.3207,-0.3207,-0.3218,-0.3182,-0.3178,-0.3174,-0.3163,-0.3158,-0.3217,-0.3217,-0.3217,-0.3218,0,-0.2997,-0.3002,-0.2996,-0.302,-0.3028,-0.3027,-0.3059,-0.3063,-0.3084,-0.3104,-0.3106,-0.3128,-0.3144,-0.3145,-0.3165,-0.3148,-0.3155,-0.3175,-0.32,-0.3165,-0.3155,-0.3151,-0.3213,-0.3214,-0.3215,-0.3215,0,0,-0.2924,-0.2967,-0.2963,-0.2975,-0.3005,-0.3009,-0.301,-0.3026,-0.3029,-0.3046,-0.3047,-0.3059,-0.3078,-0.3088,-0.311,-0.3107,-0.3078,-0.3127,-0.3128,-0.3117,-0.306,-0.3045,-0.3039,-0.3093,-0.3092,-0.3092,-0.3059,0,-0.2887,-0.289,-0.292,-0.2914,-0.292,-0.2956,-0.2957,-0.2975,-0.2994,-0.3001,-0.3023,-0.3031,-0.3055,-0.3061,-0.306,-0.3082,-0.3067,-0.3084,-0.3095,-0.3095,-0.3088,-0.3034,-0.3018,-0.2985,-0.3055,-0.3054,-0.3054,0,-0.2844,-0.2859,-0.2854,-0.2885,-0.2888,-0.2888,-0.2905,-0.2912,-0.2933,-0.2948,-0.296,-0.2985,-0.2987,-0.3011,-0.3016,-0.3027,-0.3033,-0.3044,-0.3044,-0.3046,-0.3072,-0.3034,-0.2975,-0.297,-0.3048,-0.3048,-0.3049,0,-0.2791,-0.281,-0.281,-0.2819,-0.2854,-0.2853,-0.2868,-0.289,-0.2898,-0.2913,-0.2919,-0.2934,-0.2942,-0.2953,-0.2981,-0.2996,-0.2982,-0.3008,-0.2994,-0.2993,-0.2989,-0.2989,-0.293,-0.2993,-0.2993,-0.2993,-0.2993,0,-0.2747,-0.2743,-0.2787,-0.2787,-0.2783,-0.2817,-0.2813,-0.2831,-0.2851,-0.2855,-0.2887,-0.289,-0.2928,-0.2935,-0.2957,-0.2958,-0.2961,-0.2972,-0.2978,-0.2969,-0.2968,-0.2973,-0.2976,-0.2992,-0.2992,-0.2992,-0.2993,0,-0.2687,-0.2716,-0.2719,-0.2752,-0.2761,-0.2757,-0.2785,-0.2787,-0.2808,-0.2813,-0.2816,-0.2849,-0.286,-0.2889,-0.2907,-0.2922,-0.2916,-0.2927,-0.2909,-0.2913,-0.2896,-0.2897,-0.2839,-0.2833,-0.29,-0.2899,-0.2898,0,-0.2657,-0.2655,-0.2688,-0.2693,-0.2707,-0.2715,-0.2723,-0.2757,-0.2764,-0.2789,-0.2787,-0.28,-0.2813,-0.2828,-0.2853,-0.2867,-0.2879,-0.2858,-0.2881,-0.2873,-0.2879,-0.2878,-0.2878,-0.2852,-0.2851,-0.2851,-0.285,0,-0.26,-0.2615,-0.2626,-0.2642,-0.2651,-0.2666,-0.2682,-0.2684,-0.2722,-0.2729,-0.274,-0.275,-0.2768,-0.2781,-0.2799,-0.2814,-0.2838,-0.2843,-0.284,-0.2831,-0.282,-0.2825,-0.2894,-0.2844,-0.2844,-0.2845,-0.2845,-0.2845,-0.2554,-0.2554,-0.2578,-0.2589,-0.2605,-0.2619,-0.2623,-0.2645,-0.2655,-0.2673,-0.2692,-0.2701,-0.2724,-0.2751,-0.2764,-0.2772,-0.2785,-0.2781,-0.278,-0.2778,-0.2774,-0.2819,-0.2775,-0.2776,-0.2776,-0.2776,-0.2776,0,-0.2498,-0.2516,-0.2526,-0.2548,-0.2557,-0.258,-0.2599,-0.2605,-0.2613,-0.2632,-0.2644,-0.2657,-0.267,-0.2697,-0.2712,-0.2713,-0.2724,-0.2716,-0.2716,-0.2719,-0.2762,-0.2763,-0.2706,-0.2706,-0.2706,-0.2706,-0.2706,-0.2706,-0.2471,-0.2472,-0.249,-0.2499,-0.2517,-0.2527,-0.2536,-0.2549,-0.2565,-0.2578,-0.2589,-0.2607,-0.2629,-0.2647,-0.2659,-0.2667,-0.2671,-0.2659,-0.267,-0.2709,-0.2716,-0.2722,-0.2723,-0.2659,-0.2659,-0.2626,-0.2626,-0.2626]}]]